Weather History for Panama City, FL

Change the Weather History Date:

Friday, May 31, 2013

  Actual Average Record
Temperature  
Mean Temperature 80 °F -  
Max Temperature 89 °F - 93 °F (2011)
Min Temperature 71 °F - 69 °F (2011)
Degree Days  
Heating Degree Days 0    
Cooling Degree Days 15    
Growing Degree Days 30 (Base 50)    
Moisture  
Dew Point 69 °F    
Average Humidity 70    
Maximum Humidity 93    
Minimum Humidity 46    
Precipitation  
Precipitation T in - 0.03 in (2014)
Month to date precipitation  
Year to date precipitation  
Sea Level Pressure  
Sea Level Pressure 30.09 in    
Wind  
Wind Speed 6 mph (ESE)    
Max Wind Speed 18 mph    
Max Gust Speed 41 mph    
Visibility 10 miles    
Events Rain    
T = Trace of Precipitation, MM = Missing Value Source: NWS Daily Summary

Daily Weather History Graph

Daily Weather History Graph

Search for Another Location

Airport:

Trip Planner

Search our weather history database for the weather conditions in past years. The results will help you decide how hot, cold, wet, or windy it might be!

Date:

Astronomy

May. 31, 2013 Rise Set
Actual Time 6:41 AM EDT 8:40 PM EDT
Civil Twilight 6:14 AM EDT 9:07 PM EDT
Nautical Twilight 5:41 AM EDT 9:40 PM EDT
Astronomical Twilight 5:06 AM EDT 10:15 PM EDT
Moon 1:33 AM EDT (5/31) 1:34 PM EDT (5/31)
Length of Visible Light 14h 52m
Length of Day
13h 58m
Waning Gibbous, 51% of the Moon is Illuminated
May 31
Waning Gibbous
May 31
Last Quarter
Jun 8
New
Jun 16
First Quarter
Jun 23
Full

Hourly Weather History & Observations

Time (EDT) Temp. Heat Index Dew Point Humidity Pressure Visibility Wind Dir Wind Speed Gust Speed Precip Events Conditions
12:53 AM 75.0 °F - 68.0 °F 79% 30.10 in 10.0 mi NE 4.6 mph - N/A   Clear
1:53 AM 73.0 °F - 69.1 °F 87% 30.11 in 10.0 mi ENE 3.5 mph - N/A   Partly Cloudy
2:53 AM 73.0 °F - 68.0 °F 84% 30.08 in 10.0 mi ENE 4.6 mph - N/A   Clear
3:53 AM 72.0 °F - 69.1 °F 91% 30.07 in 10.0 mi ENE 5.8 mph - N/A   Clear
4:53 AM 72.0 °F - 69.1 °F 91% 30.06 in 10.0 mi ENE 3.5 mph - N/A   Clear
5:53 AM 72.0 °F - 69.1 °F 91% 30.07 in 10.0 mi Calm Calm - N/A   Clear
6:53 AM 71.1 °F - 68.0 °F 90% 30.09 in 8.0 mi NE 3.5 mph - N/A   Clear
7:53 AM 72.0 °F - 69.1 °F 91% 30.10 in 10.0 mi ENE 4.6 mph - N/A   Clear
8:53 AM 78.1 °F - 70.0 °F 76% 30.12 in 10.0 mi East 8.1 mph - N/A   Partly Cloudy
9:09 AM 78.8 °F - 69.8 °F 74% 30.10 in 10.0 mi East 6.9 mph - N/A   Mostly Cloudy
9:53 AM 80.1 °F 82.9 °F 69.1 °F 69% 30.13 in 10.0 mi East 6.9 mph - N/A   Mostly Cloudy
10:53 AM 82.0 °F 84.9 °F 68.0 °F 62% 30.13 in 10.0 mi ESE 9.2 mph - N/A   Mostly Cloudy
11:11 AM 82.4 °F 86.3 °F 69.8 °F 66% 30.10 in 10.0 mi Variable 5.8 mph - N/A   Overcast
11:45 AM 82.4 °F 85.4 °F 68.0 °F 62% 30.10 in 10.0 mi ESE 10.4 mph - N/A   Overcast
11:53 AM 79.0 °F - 71.1 °F 77% 30.14 in 7.0 mi ESE 5.8 mph - 0.00 in Rain Light Rain
12:53 PM 84.0 °F 87.0 °F 68.0 °F 58% 30.11 in 10.0 mi East 10.4 mph 17.3 mph 0.00 in   Overcast
1:53 PM 82.0 °F 85.5 °F 69.1 °F 65% 30.11 in 10.0 mi SE 10.4 mph - 0.00 in   Overcast
2:53 PM 88.0 °F 91.4 °F 68.0 °F 51% 30.09 in 10.0 mi ESE 8.1 mph 17.3 mph N/A   Mostly Cloudy
3:53 PM 87.1 °F 91.3 °F 69.1 °F 55% 30.07 in 10.0 mi SSE 16.1 mph - N/A   Scattered Clouds
4:53 PM 89.1 °F 92.1 °F 66.9 °F 48% 30.06 in 10.0 mi SE 15.0 mph 20.7 mph N/A   Scattered Clouds
5:53 PM 88.0 °F 89.3 °F 64.0 °F 45% 30.06 in 10.0 mi ESE 11.5 mph 21.9 mph N/A   Scattered Clouds
6:53 PM 86.0 °F 90.7 °F 70.0 °F 59% 30.05 in 10.0 mi SSE 12.7 mph - N/A   Scattered Clouds
7:53 PM 82.0 °F 86.3 °F 71.1 °F 69% 30.05 in 10.0 mi SSE 8.1 mph - N/A   Clear
8:53 PM 79.0 °F - 71.1 °F 77% 30.06 in 10.0 mi SE 4.6 mph - N/A   Clear
9:53 PM 75.9 °F - 70.0 °F 82% 30.06 in 10.0 mi SSE 3.5 mph - N/A   Clear
10:53 PM 75.9 °F - 70.0 °F 82% 30.07 in 10.0 mi Calm Calm - N/A   Clear
11:53 PM 73.9 °F - 70.0 °F 87% 30.06 in 10.0 mi East 3.5 mph - N/A   Clear